RH
38 35 37 27 26 24 24 22 24 27 30 27 26 23 24 32 30 31 30 31 33 33 44 49 46 41 40 52 53 54 58 61 63 67 67 65 66 64 62 60 60 61 60 61
40 41 27 25 30 28 28 25 29 35 33 29 31 27 30 33 39 42 42 40 44 44 44 49 53 51 37 52 59 57 57 59 62 61 62 59 61 60 57 61 62 61 60 61
38 32 34 32 35 30 29 26 31 29 36 33 32 28 35 37 41 47 50 52 52 55 52 53 57 59 61 50 63 60 58 60 60 60 65 67 67 66 65 64 63 62 59 61
31 37 36 34 35 28 34 28 30 40 34 36 32 27 22 30 35 43 50 51 52 55 55 59 62 66 72 80 66 65 64 64 63 65 67 68 65 67 65 65 65 63 65 69
38 42 39 38 32 28 32 32 36 37 41 36 35 38 17 34 33 36 46 51 53 56 59 63 70 74 75 78 85 78 73 72 71 70 66 68 68 66 66 67 76 74 71 68
38 40 31 29 37 28 36 34 39 46 44 62 28 26 16 24 22 31 47 49 55 55 58 62 66 69 74 75 79 80 80 82 84 78 74 72 75 84 89 89 84 78 72 74
46 45 42 39 44 40 35 32 71 73 88 46 41 33 17 22 35 34 49 52 53 54 54 58 62 67 73 76 76 75 78 82 78 78 78 79 80 81 82 79 76 71 64 61
55 72 48 40 35 42 37 30 64 82 57 34 45 39 21 55 54 46 48 51 54 54 53 57 58 59 62 66 69 70 71 72 71 70 71 71 72 70 66 60 58 59 59 60
35 43 49 46 43 32 40 49 26 36 39 39 32 30 40 66 62 56 57 56 56 54 54 55 54 53 54 57 56 56 56 55 52 51 48 46 46 46 45 43 42 43 46 43
27 40 53 49 41 43 36 27 39 37 64 34 32 33 26 72 66 60 61 57 57 54 53 51 49 50 50 51 51 49 46 46 45 42 39 37 37 37 35 34 36 36 35 39
27 27 58 50 50 43 41 34 33 27 37 56 18 20 28 41 58 63 58 56 56 52 49 46 47 46 46 45 46 48 47 46 44 42 39 38 39 37 34 33 33 35 33 35
28 42 54 49 51 46 32 30 26 34 42 40 33 19 47 55 52 55 58 54 51 48 45 43 43 41 40 41 42 45 46 45 43 39 39 42 40 38 37 38 37 35 36 37
37 41 64 61 50 51 50 43 28 28 32 32 42 16 56 60 58 54 56 51 47 46 47 45 43 39 38 40 42 43 43 44 42 40 39 41 44 44 44 44 43 41 42 42
37 36 27 33 27 41 53 47 42 30 32 21 22 15 53 65 62 56 52 48 45 47 47 44 42 39 38 39 40 41 46 44 44 45 45 45 48 49 48 49 49 49 47 46
35 42 29 19 29 41 42 47 45 38 28 28 19 22 19 52 57 55 51 48 47 46 45 45 41 39 40 42 41 43 47 47 43 45 49 53 52 50 50 51 52 51 52 51
53 92 60 62 47 43 44 43 42 36 30 25 23 28 47 43 54 55 54 49 47 47 43 42 40 39 39 41 43 46 50 52 48 49 53 53 51 50 53 52 52 50 51 52
99 98 96 68 62 72 74 46 44 39 33 31 43 65 58 65 65 58 56 50 46 42 43 43 40 39 40 43 44 48 50 50 52 54 52 51 49 49 51 49 49 50 51 52
95 91 100 94 84 81 37 56 45 41 45 41 46 50 52 54 60 54 51 48 45 43 44 42 41 45 47 51 51 50 50 51 53 54 50 48 48 47 49 49 51 52 53 55
64 97 96 94 80 64 57 61 58 55 56 50 42 57 60 60 59 59 48 46 44 42 43 43 45 49 47 49 50 49 52 53 52 52 49 48 50 48 47 50 52 51 54 55
75 91 96 95 81 77 33 51 53 44 47 52 52 62 64 59 66 59 50 49 47 48 49 54 55 52 49 49 46 46 51 50 53 56 55 48 46 44 46 47 48 49 51 53
85 87 82 91 97 96 67 61 54 63 43 52 50 56 59 58 50 49 51 53 49 50 55 56 53 50 50 48 44 44 42 43 44 51 52 47 42 45 43 45 44 47 50 53
77 82 82 93 90 80 63 62 64 61 56 53 54 54 57 60 58 57 54 54 54 60 60 55 56 55 51 49 44 44 45 45 40 40 42 42 42 42 43 45 43 45 49 52
71 71 74 69 64 64 59 60 56 53 55 58 60 62 62 62 60 57 57 53 54 56 58 55 57 61 56 52 46 44 46 41 39 37 38 41 42 41 44 44 44 47 49 54
86 78 81 82 82 73 65 61 57 54 59 57 57 57 56 58 55 57 58 59 64 67 72 71 61 57 54 49 47 46 42 40 40 38 39 41 43 46 43 43 44 47 51 54
79 79 79 94 91 73 71 64 62 63 58 57 54 53 54 57 65 72 80 82 82 75 66 50 49 48 48 45 46 44 40 41 40 40 40 40 41 44 47 44 45 49 48 55
82 86 77 75 70 68 81 72 61 66 70 66 65 71 72 76 87 88 87 71 60 56 49 46 44 44 46 46 48 45 43 43 46 46 40 42 46 46 46 46 46 48 58 64
Wind_Speed
6 10 19 21 17 2 10 13 11 3 6 8 13 7 10 2 2 2 1 1 1 2 3 3 3 4 10 12 13 15 14 14 11 9 8 7 6 6 5 5 6 6 5 5
7 18 15 13 13 6 9 12 7 4 4 4 5 11 5 2 2 1 2 2 3 1 2 4 5 4 5 12 13 13 14 14 12 9 7 4 6 4 3 3 4 3 4 3
14 5 13 13 11 12 7 12 10 4 7 3 3 8 7 4 5 3 3 2 3 3 3 4 5 5 4 4 11 12 13 13 12 10 7 5 5 4 4 3 3 2 2 1
11 4 17 14 16 17 14 6 9 12 12 6 3 6 7 9 8 6 4 3 3 3 4 5 5 6 7 4 4 8 9 10 10 11 9 9 5 5 3 4 3 3 3 2
8 12 18 18 16 18 6 10 9 5 4 3 6 4 7 5 12 12 9 5 4 4 4 6 7 6 7 7 7 6 8 8 7 8 8 7 5 5 5 4 5 4 3 4
3 1 7 9 4 15 19 12 9 5 2 4 10 9 8 8 8 15 11 8 6 5 6 8 8 8 8 8 10 9 13 11 9 7 6 6 7 7 5 5 4 3 3 4
5 5 2 8 13 12 7 17 5 4 5 7 3 7 10 6 3 8 15 12 9 7 7 8 9 9 10 10 10 10 12 12 11 13 12 11 11 10 8 6 4 4 3 4
13 9 11 7 6 13 18 16 7 8 7 7 3 9 4 2 2 8 12 11 10 8 8 9 9 10 11 11 11 12 13 13 12 12 12 10 10 6 6 7 5 5 6 7
14 8 2 1 4 12 10 10 3 8 2 3 6 6 5 6 7 11 13 12 11 10 9 10 10 10 11 11 12 13 14 14 13 13 12 12 11 11 9 9 8 6 8 7
10 8 4 2 3 3 6 14 6 3 9 7 6 6 7 13 16 15 15 15 12 10 11 10 10 10 10 11 11 13 13 14 13 13 12 11 11 11 9 9 10 9 7 7
8 5 7 6 10 14 6 8 4 3 4 8 6 6 4 12 19 22 18 17 16 14 12 11 10 10 10 11 11 12 12 13 12 12 11 11 10 10 9 8 7 7 6 7
8 5 8 15 2 4 7 11 18 9 7 2 2 5 2 2 16 20 19 17 16 15 14 13 12 11 11 11 11 10 11 11 10 10 10 10 9 8 8 8 8 7 7 7
13 8 8 4 4 3 8 5 13 3 3 11 9 7 1 4 14 19 21 18 17 16 15 13 12 11 11 10 10 9 9 10 9 8 9 9 9 8 8 7 7 7 7 7
20 8 14 14 11 12 12 13 11 13 9 11 12 10 8 12 16 20 22 21 19 17 16 14 12 11 10 9 9 9 8 8 8 8 8 9 8 7 7 7 7 7 6 6
11 14 16 19 3 10 9 19 19 17 23 14 18 14 9 18 22 23 20 21 21 19 17 15 14 12 10 9 9 8 7 7 7 8 9 9 7 7 6 6 6 5 6 7
4 3 8 7 6 8 7 15 22 27 26 22 11 8 1 10 14 20 23 24 22 20 18 16 14 13 11 10 8 8 7 7 7 8 8 6 6 5 5 5 6 6 7 8
10 8 5 11 6 4 4 18 22 20 21 19 16 8 13 12 19 24 25 24 23 22 20 17 15 12 10 9 8 8 7 6 7 7 6 6 5 5 6 7 7 9 9 10
6 9 2 4 6 9 6 4 7 17 11 13 4 10 18 15 13 16 20 22 22 22 20 17 13 12 11 10 9 7 6 6 6 6 5 5 5 6 7 8 8 9 9 10
6 6 4 6 8 2 4 7 9 14 13 15 13 12 12 16 16 12 17 20 20 20 17 14 12 11 10 9 8 8 7 6 5 5 5 5 6 7 7 8 9 9 10 10
2 4 4 6 10 12 10 7 4 3 9 15 15 19 22 18 10 10 19 19 20 19 16 15 13 11 10 8 7 8 7 6 5 4 5 6 7 7 7 8 8 8 8 9
6 7 10 6 3 5 2 6 4 11 4 16 16 20 21 11 2 22 20 20 21 18 18 15 12 10 9 7 6 7 5 5 5 4 4 4 5 5 6 7 7 8 10 10
10 10 6 1 4 13 7 5 7 2 4 10 12 15 14 16 21 23 21 21 20 18 16 14 12 10 7 6 5 6 5 3 3 3 3 4 5 5 5 8 9 9 9 11
5 2 8 5 3 3 4 4 3 2 10 8 14 15 19 19 19 21 20 20 19 18 14 12 11 10 6 5 4 5 3 2 4 4 5 5 6 6 6 8 9 8 9 9
2 4 4 7 1 3 5 6 7 7 10 13 18 20 20 23 20 22 18 15 14 12 12 10 11 10 7 5 4 4 2 3 4 5 5 5 6 7 6 6 6 7 8 9
3 4 5 5 5 7 7 7 11 16 17 18 16 17 19 21 18 19 16 15 12 11 9 8 8 8 7 5 4 3 2 3 4 5 5 5 5 7 7 7 7 7 9 9
6 3 2 2 10 6 7 6 13 18 17 17 20 19 16 17 17 16 14 12 12 11 9 8 7 6 5 4 3 1 3 4 4 5 4 5 6 6 7 8 9 11 15 16
Wind_Direction
181 191 202 189 197 202 190 204 195 153 153 189 207 198 177 114 144 121 63 71 122 168 350 351 328 266 227 209 201 196 188 186 181 181 181 183 190 189 194 199 193 195 196 196
161 214 199 186 180 156 176 185 171 106 119 229 201 224 187 153 105 47 1 13 2 331 359 8 2 350 234 211 203 196 194 186 187 182 184 182 174 194 187 174 173 176 184 181
186 168 151 173 179 183 193 202 179 164 141 100 175 240 199 173 158 138 92 67 42 14 358 11 18 25 22 210 209 199 193 189 189 185 163 145 132 131 164 156 151 162 186 177
213 138 171 174 190 192 203 194 152 143 166 203 234 228 211 188 191 194 165 143 86 67 62 46 38 45 39 24 201 201 189 186 185 180 182 182 185 166 115 118 119 115 109 133
182 163 171 181 194 185 181 142 128 143 130 188 181 242 134 168 213 202 179 152 121 86 74 69 61 55 44 44 61 119 147 155 165 181 190 184 163 113 117 107 104 86 77 76
130 88 181 183 123 181 138 115 75 65 86 248 214 227 207 187 215 176 165 156 137 112 95 85 82 79 66 58 59 75 84 68 76 107 132 158 128 110 98 77 75 53 41 42
147 154 131 144 100 138 180 154 128 171 193 234 341 222 242 153 138 193 167 156 144 131 115 100 91 83 77 72 75 78 83 72 75 81 77 77 82 82 79 72 63 56 50 27
177 188 184 172 181 172 182 185 163 181 186 198 149 225 217 60 68 144 149 144 139 133 118 100 90 86 86 84 84 85 85 86 80 81 82 80 82 81 79 65 64 54 46 32
188 170 101 206 149 167 170 209 84 104 77 174 181 256 208 148 140 151 150 153 147 136 123 112 103 95 93 89 87 93 94 91 88 89 89 82 77 75 76 71 64 54 42 23
183 163 222 111 136 71 207 144 153 185 165 217 193 261 244 198 182 175 170 163 152 141 135 124 112 105 98 94 94 92 91 90 89 86 83 81 79 74 70 66 60 52 43 27
171 223 154 162 214 169 150 185 199 196 205 205 213 222 195 199 188 179 173 165 159 153 144 132 120 111 105 100 95 94 92 92 90 89 89 87 85 83 77 67 56 44 35 19
177 114 162 194 54 312 235 211 190 197 181 216 278 215 147 120 179 171 167 165 161 156 148 138 131 125 116 108 101 94 94 91 87 87 85 81 76 69 65 58 48 32 23 14
172 175 125 146 232 195 220 177 211 193 117 194 192 198 123 152 161 172 164 164 162 155 149 143 141 135 123 114 106 101 96 92 89 87 84 74 64 55 51 45 32 23 14 8
162 178 206 203 206 140 198 194 204 202 211 205 226 214 180 173 172 174 169 165 162 161 159 152 144 136 125 118 114 107 101 94 93 86 79 72 60 48 35 27 20 11 358 348
191 211 212 225 186 177 192 188 187 198 224 221 232 219 200 189 183 179 168 164 164 164 161 159 149 140 135 129 121 111 100 91 88 82 68 56 48 41 29 18 5 352 350 347
197 184 180 213 185 196 199 201 196 207 220 231 237 234 41 155 159 171 173 170 169 165 164 157 149 145 142 133 120 111 100 84 76 73 69 57 44 32 18 2 354 359 355 351
152 136 145 217 151 122 258 205 201 214 219 222 219 194 152 163 177 179 176 175 169 165 160 156 155 148 137 129 124 111 103 95 80 74 61 48 29 18 6 1 360 358 353 345
152 129 77 126 140 205 242 25 218 203 209 206 170 167 181 184 177 172 176 168 164 161 157 153 149 140 132 127 117 112 101 91 84 73 59 37 18 12 5 1 360 352 344 336
187 122 118 157 204 13 177 193 176 180 225 200 192 148 131 122 123 161 173 170 159 155 149 144 140 133 130 127 125 116 105 96 88 67 46 25 12 3 358 358 349 340 331 326
105 82 128 175 200 219 244 160 169 165 247 180 157 154 149 148 166 181 164 154 146 140 138 137 134 130 126 122 121 115 100 87 69 39 19 7 1 352 349 344 334 324 317 313
163 194 204 192 222 278 106 137 162 176 227 170 169 160 161 172 27 130 140 140 135 133 131 129 129 122 114 120 117 104 103 75 40 10 348 347 344 335 335 329 322 321 324 315
165 166 192 182 193 242 151 115 203 62 59 144 142 154 139 117 124 131 129 126 125 124 126 127 121 116 113 117 126 110 85 50 15 345 327 336 342 339 332 330 330 327 320 319
191 163 167 217 201 72 33 12 79 123 132 131 126 125 126 123 127 127 125 126 130 129 126 121 121 122 126 110 99 110 89 16 347 338 345 344 336 336 333 331 327 324 321 312
83 2 126 171 52 70 28 55 78 101 114 125 125 127 128 124 128 118 112 113 114 116 118 128 140 136 125 115 106 97 79 4 338 335 336 329 326 327 324 321 311 310 312 315
13 317 127 90 108 111 58 65 109 106 108 107 109 117 118 117 118 115 117 118 118 122 131 131 128 128 124 127 118 94 32 353 334 323 320 319 316 312 310 305 304 302 299 301
350 16 262 77 154 70 98 109 117 108 105 108 115 106 104 113 109 108 112 121 127 126 124 115 112 118 115 108 99 49 342 332 319 309 308 307 302 302 303 302 300 294 300 300